Time,TemperatureF,DewpointF,PressureIn,WindDirection,WindDirectionDegrees,WindSpeedMPH,WindSpeedGustMPH,Humidity,HourlyPrecipIn,Conditions,Clouds,dailyrainin,SoftwareType,DateUTC
2013-03-14 00:00:00,23.4,14.7,30.17,NW,315,11.0,21.0,69,0.00,,,-99.99,WeatherLink 5.6,2013-03-14 04:00:00,
2013-03-14 00:30:00,23.3,15.0,30.16,NW,315,10.0,22.0,70,0.00,,,-99.99,WeatherLink 5.6,2013-03-14 04:30:00,
2013-03-14 01:00:00,23.1,15.7,30.17,NW,315,10.0,20.0,73,0.00,,,-99.99,WeatherLink 5.6,2013-03-14 05:00:00,
2013-03-14 01:30:00,22.6,15.9,30.18,NW,315,8.0,20.0,75,0.00,,,-99.99,WeatherLink 5.6,2013-03-14 05:30:00,
2013-03-14 02:00:00,22.1,17.4,30.19,NW,315,8.0,16.0,82,0.00,,,-99.99,WeatherLink 5.6,2013-03-14 06:00:00,
2013-03-14 02:30:00,22.0,17.1,30.18,NW,315,6.0,15.0,81,0.00,,,-99.99,WeatherLink 5.6,2013-03-14 06:30:00,
2013-03-14 03:00:00,21.2,17.9,30.19,NW,315,8.0,16.0,87,0.00,,,-99.99,WeatherLink 5.6,2013-03-14 07:00:00,
2013-03-14 03:30:00,21.2,17.4,30.18,NW,315,10.0,18.0,85,0.00,,,-99.99,WeatherLink 5.6,2013-03-14 07:30:00,
2013-03-14 04:00:00,21.1,16.2,30.19,NW,315,10.0,27.0,81,0.00,,,-99.99,WeatherLink 5.6,2013-03-14 08:00:00,
2013-03-14 04:30:00,21.0,16.4,30.20,NW,315,9.0,17.0,82,0.00,,,-99.99,WeatherLink 5.6,2013-03-14 08:30:00,
2013-03-14 05:00:00,20.9,16.0,30.20,NW,315,6.0,13.0,81,0.00,,,-99.99,WeatherLink 5.6,2013-03-14 09:00:00,
2013-03-14 05:10:00,20.7,16.1,30.19,NW,315,5.0,17.0,82,0.00,,,-99.99,WeatherLink 5.6,2013-03-14 09:10:00,
2013-03-14 05:40:00,20.1,14.9,30.20,NNW,337,7.0,19.0,80,0.00,,,-99.99,WeatherLink 5.6,2013-03-14 09:40:00,
2013-03-14 06:10:00,20.1,15.2,30.22,NW,315,7.0,17.0,81,0.00,,,-99.99,WeatherLink 5.6,2013-03-14 10:10:00,
2013-03-14 06:40:00,20.2,15.3,30.24,NW,315,7.0,18.0,81,0.00,,,-99.99,WeatherLink 5.6,2013-03-14 10:40:00,
2013-03-14 07:10:00,19.9,15.3,30.25,NW,315,8.0,19.0,82,0.00,,,-99.99,WeatherLink 5.6,2013-03-14 11:10:00,
2013-03-14 07:40:00,19.9,15.3,30.26,NNW,337,7.0,16.0,82,0.00,,,-99.99,WeatherLink 5.6,2013-03-14 11:40:00,
2013-03-14 08:10:00,19.7,14.8,30.27,NW,315,7.0,15.0,81,0.00,,,-99.99,WeatherLink 5.6,2013-03-14 12:10:00,
2013-03-14 08:40:00,19.7,14.8,30.27,NNW,337,6.0,14.0,81,0.00,,,-99.99,WeatherLink 5.6,2013-03-14 12:40:00,
2013-03-14 09:10:00,20.0,15.4,30.27,NW,315,4.0,18.0,82,0.00,,,-99.99,WeatherLink 5.6,2013-03-14 13:10:00,
2013-03-14 09:40:00,20.6,15.7,30.27,NNW,337,5.0,12.0,81,0.00,,,-99.99,WeatherLink 5.6,2013-03-14 13:40:00,
2013-03-14 10:10:00,22.0,15.9,30.27,NW,315,2.0,11.0,77,0.00,,,-99.99,WeatherLink 5.6,2013-03-14 14:10:00,
2013-03-14 10:40:00,23.0,15.6,30.26,WNW,292,3.0,10.0,73,0.00,,,-99.99,WeatherLink 5.6,2013-03-14 14:40:00,
2013-03-14 11:10:00,24.0,15.6,30.26,North,0,4.0,14.0,70,0.00,,,-99.99,WeatherLink 5.6,2013-03-14 15:10:00,
2013-03-14 11:40:00,25.3,16.5,30.25,WNW,292,3.0,10.0,69,0.00,,,-99.99,WeatherLink 5.6,2013-03-14 15:40:00,
2013-03-14 12:10:00,26.6,15.7,30.24,NW,315,6.0,17.0,63,0.00,,,-99.99,WeatherLink 5.6,2013-03-14 16:10:00,
2013-03-14 12:40:00,28.3,16.9,30.24,WNW,292,5.0,14.0,62,0.00,,,-99.99,WeatherLink 5.6,2013-03-14 16:40:00,
2013-03-14 13:10:00,29.9,15.7,30.22,WNW,292,3.0,13.0,55,0.00,,,-99.99,WeatherLink 5.6,2013-03-14 17:10:00,
2013-03-14 13:40:00,31.1,17.6,30.22,North,0,4.0,13.0,57,0.00,,,-99.99,WeatherLink 5.6,2013-03-14 17:40:00,
2013-03-14 14:10:00,32.1,15.5,30.20,WNW,292,5.0,14.0,50,0.00,,,-99.99,WeatherLink 5.6,2013-03-14 18:10:00,
2013-03-14 14:40:00,33.9,17.2,30.19,NW,315,6.0,15.0,50,0.00,,,-99.99,WeatherLink 5.6,2013-03-14 18:40:00,
2013-03-14 15:10:00,35.1,18.3,30.17,NW,315,7.0,17.0,50,0.00,,,-99.99,WeatherLink 5.6,2013-03-14 19:10:00,
2013-03-14 15:40:00,35.3,17.5,30.17,NW,315,7.0,18.0,48,0.00,,,-99.99,WeatherLink 5.6,2013-03-14 19:40:00,
2013-03-14 16:10:00,36.2,17.4,30.16,NW,315,5.0,17.0,46,0.00,,,-99.99,WeatherLink 5.6,2013-03-14 20:10:00,
2013-03-14 16:40:00,37.0,18.1,30.15,NW,315,7.0,18.0,46,0.00,,,-99.99,WeatherLink 5.6,2013-03-14 20:40:00,
2013-03-14 17:10:00,37.5,19.1,30.15,NW,315,5.0,12.0,47,0.00,,,-99.99,WeatherLink 5.6,2013-03-14 21:10:00,
2013-03-14 17:40:00,37.4,17.4,30.13,NW,315,4.0,15.0,44,0.00,,,-99.99,WeatherLink 5.6,2013-03-14 21:40:00,
2013-03-14 18:10:00,37.1,18.7,30.13,NW,315,3.0,12.0,47,0.00,,,-99.99,WeatherLink 5.6,2013-03-14 22:10:00,
2013-03-14 18:40:00,36.6,17.7,30.13,NW,315,4.0,14.0,46,0.00,,,-99.99,WeatherLink 5.6,2013-03-14 22:40:00,
2013-03-14 19:10:00,35.6,16.3,30.14,WNW,292,5.0,13.0,45,0.00,,,-99.99,WeatherLink 5.6,2013-03-14 23:10:00,
2013-03-14 19:40:00,34.4,17.2,30.14,WNW,292,5.0,17.0,49,0.00,,,-99.99,WeatherLink 5.6,2013-03-14 23:40:00,
2013-03-14 20:10:00,33.4,16.3,30.15,NW,315,3.0,11.0,49,0.00,,,-99.99,WeatherLink 5.6,2013-03-15 00:10:00,
2013-03-14 20:40:00,32.6,15.5,30.15,NW,315,2.0,9.0,49,0.00,,,-99.99,WeatherLink 5.6,2013-03-15 00:40:00,
2013-03-14 21:10:00,32.5,15.4,30.15,WNW,292,1.0,7.0,49,0.00,,,-99.99,WeatherLink 5.6,2013-03-15 01:10:00,
2013-03-14 21:40:00,32.3,16.2,30.14,NW,315,1.0,6.0,51,0.00,,,-99.99,WeatherLink 5.6,2013-03-15 01:40:00,
2013-03-14 22:10:00,32.2,16.1,30.14,WNW,292,0.0,6.0,51,0.00,,,-99.99,WeatherLink 5.6,2013-03-15 02:10:00,
2013-03-14 23:30:00,32.4,16.7,30.14,WNW,292,1.0,6.0,52,0.00,,,-99.99,WeatherLink 5.6,2013-03-15 03:30:00,